Home > Weather > Preston > Past weeks

Flag for United Kingdom Weather for the Past 2 Weeks in Preston, England, United Kingdom

Now
43 °F

Passing clouds.


Feels Like: 37 °F
Forecast: 41 / 54 °F
Wind: 9 mph from Northwest

Location: Liverpool Airport

Current Time: Apr 30, 2016 at 3:13:27 AM

Latest Report: Apr 30, 2016 at 2:20 AM


Visibility: N/A

Pressure: 30.01 "Hg

Humidity: 87%

Dew Point: 39 °F

Location of PrestonLocation

Historic Weather in Preston — Graph

°F

Preston Temperature Yesterday

Maximum temperature yesterday: 48 °F (at 3:50 PM)
Minimum temperature yesterday: 37 °F (at 1:20 AM)
Average temperature yesterday: 42 °F

High & Low Weather Summary for the Past Weeks

 TemperatureHumidityPressure
High63 °F (Apr 20, 3:50 PM)100% (Apr 15, 7:50 AM)30.48 "Hg (Apr 15, 7:50 AM)
Low34 °F (Apr 17, 6:20 AM)37% (Apr 20, 5:20 PM)29.53 "Hg (Apr 15, 4:20 PM)
Average46 °F72%30.01 "Hg
* Reported Apr 15 1:20 AM — Apr 30 1:20 AM, Preston, Weather by CustomWeather, © 2016

Note: Actual official high and low records may vary slightly from our data, if they occured in-between our weather recording intervals... More about our weather records

Advertising

Preston Weather History for the Previous 24 Hours

Scroll right to see more
 ConditionsComfort  
Time TempWeatherWind HumidityBarometerVisibility
1:20 AM
Sat, Apr 30
43 °FPassing clouds.9 mph81%30.01 "HgN/A
12:50 AM43 °FPassing clouds.9 mph81%30.01 "HgN/A
12:20 AM43 °FPassing clouds.9 mph81%29.98 "HgN/A
11:50 PM
Fri, Apr 29
41 °FPassing clouds.7 mph93%29.98 "HgN/A
11:20 PM39 °FPassing clouds.8 mph93%29.98 "HgN/A
10:50 PM41 °FScattered showers. Passing clouds.8 mph87%29.95 "HgN/A
10:20 PM41 °FScattered showers. Passing clouds.8 mph87%29.95 "HgN/A
9:50 PM43 °FScattered showers. Passing clouds.7 mph76%29.95 "HgN/A
9:20 PM45 °FScattered showers. Passing clouds.10 mph71%29.95 "HgN/A
8:50 PM43 °FScattered showers. Passing clouds.9 mph76%29.92 "HgN/A
8:20 PM43 °FScattered showers. Passing clouds.12 mph76%29.92 "HgN/A
7:50 PM43 °FScattered showers. Passing clouds.12 mph81%29.89 "HgN/A
7:20 PM43 °FSprinkles. Scattered clouds.7 mph81%29.89 "HgN/A
6:50 PM43 °FSleet. Partly sunny.16 mph81%29.89 "HgN/A
6:20 PM46 °FSprinkles. Partly sunny.12 mph71%29.86 "HgN/A
5:50 PM46 °FSprinkles. Broken clouds.21 mph71%29.86 "HgN/A
5:20 PM48 °FScattered showers. Broken clouds.22 mph62%29.83 "HgN/A
4:50 PM48 °FScattered clouds.22 mph58%29.83 "HgN/A
4:20 PM48 °FScattered clouds.21 mph62%29.80 "HgN/A
3:50 PM48 °FScattered clouds.21 mph58%29.80 "HgN/A
3:20 PM46 °FPartly sunny.22 mph62%29.80 "HgN/A
2:50 PM46 °FPartly sunny.23 mph66%29.77 "HgN/A
2:20 PM46 °FPartly sunny.20 mph66%29.77 "HgN/A
1:50 PM46 °FPartly sunny.21 mph76%29.74 "HgN/A
1:20 PM45 °FScattered clouds.18 mph81%29.74 "HgN/A
12:50 PM45 °FSprinkles. Partly sunny.16 mph81%29.71 "HgN/A
12:20 PM41 °FMixture of precip. Partly sunny.20 mph100%29.71 "HgN/A
11:50 AM41 °FSprinkles. Broken clouds.21 mph93%29.71 "HgN/A
11:20 AM39 °FSprinkles. Broken clouds.25 mph93%29.71 "HgN/A
10:50 AM41 °FSprinkles. Broken clouds.22 mph93%29.68 "HgN/A
10:20 AM41 °FRain showers. Broken clouds.23 mph81%29.68 "Hg5 mi
9:50 AM43 °FScattered showers. Partly sunny.24 mph76%29.65 "HgN/A
9:20 AM39 °FSprinkles. Scattered clouds.24 mph87%29.68 "HgN/A
8:50 AM41 °FSprinkles. Scattered clouds.23 mph81%29.68 "HgN/A
8:20 AM41 °FScattered showers. Scattered clouds.25 mph87%29.68 "HgN/A
7:50 AM39 °FSprinkles. Scattered clouds.21 mph87%29.65 "HgN/A
7:20 AM37 °FScattered showers. Scattered clouds.22 mph93%29.65 "HgN/A
6:50 AM37 °FScattered showers. Scattered clouds.21 mph93%29.65 "HgN/A
6:20 AM37 °FScattered showers. Passing clouds.16 mph93%29.65 "HgN/A
5:50 AM37 °FScattered showers. Passing clouds.16 mph93%29.65 "HgN/A
5:20 AM37 °FScattered showers. Passing clouds.16 mph87%29.65 "HgN/A
4:50 AM37 °FPassing clouds.16 mph87%29.65 "HgN/A
4:20 AM37 °FSprinkles. Passing clouds.15 mph93%29.65 "HgN/A
3:20 AM37 °FScattered showers. Passing clouds.17 mph87%29.68 "HgN/A
Weather by CustomWeather, © 2016

See weather overviewHow to use our weather pages